Location: Unspecified
(0.0000°N, 0.0000°E)
Time: 01:24:48
(UTC+00:00)

deb Explorer IX - Pass Details

Date: 25 November 2019
Orbit: 546 x 1104 km, 38.8° (Epoch: 11 December)

Event Time Altitude Azimuth Distance (km) Brightness Sun altitude
Rises 16:20:32 0° 190° (S) 3,405 ? 20.1°
Reaches altitude 10° 16:25:35 10° 153° (SSE) 2,634 ? 19.0°
Maximum altitude 16:26:58 11° 140° (SE) 2,623 ? 18.6°
Drops below altitude 10° 16:28:24 10° 127° (SE) 2,715 ? 18.3°
Sets 16:33:58 0° 92° (E) 3,797 ? 17.0°
